This is the latest recevied weather packets stored in our database for station/object WA4IKQ. If no packets are shown the sender has not sent any weather packets the latest 10 day(s).
| Time | Temp. | Humidity | Pressure | Rain* | Wind** | Luminosity | Snow |
|---|---|---|---|---|---|---|---|
| 1787521572 | 25.56° C | 87% | 1014.9 hPa | 0 mm | 0.89 m/s, 215° | - | - |
| 1787521460 | 26.11° C | 87% | 1014.9 hPa | 0 mm | 0.89 m/s, 180° | - | - |
| 1787521271 | 26.11° C | 87% | 1014.9 hPa | 0 mm | 0.89 m/s, 180° | - | - |
| 1787521055 | 26.11° C | 87% | 1015 hPa | 0 mm | 1.79 m/s, 155° | - | - |
| 1787520969 | 26.11° C | 87% | 1015 hPa | 0 mm | 1.79 m/s, 155° | - | - |
| 1787520810 | 25.56° C | 87% | 1014.9 hPa | 0 mm | 1.79 m/s, 149° | - | - |
| 1787520671 | 25.56° C | 87% | 1014.9 hPa | 0 mm | 1.79 m/s, 149° | - | - |
| 1787520477 | 25.56° C | 87% | 1014.9 hPa | 0 mm | 1.79 m/s, 191° | - | - |
| 1787520371 | 25.56° C | 87% | 1014.9 hPa | 0 mm | 1.79 m/s, 191° | - | - |
| 1787520197 | 25.56° C | 86% | 1015 hPa | 0 mm | 1.34 m/s, 150° | - | - |
| 1787520070 | 25.56° C | 86% | 1015 hPa | 0 mm | 1.34 m/s, 150° | - | - |
| 1787519900 | 25.56° C | 86% | 1015 hPa | 0 mm | 1.34 m/s, 183° | - | - |
| 1787519771 | 25.56° C | 86% | 1015 hPa | 0 mm | 1.34 m/s, 183° | - | - |
| 1787519568 | 25.56° C | 86% | 1015.1 hPa | 0 mm | 1.34 m/s, 197° | - | - |
| 1787519471 | 25.56° C | 86% | 1015.1 hPa | 0 mm | 1.34 m/s, 197° | - | - |
| 1787519254 | 25.56° C | 86% | 1015.1 hPa | 0 mm | 1.79 m/s, 226° | - | - |
| 1787519168 | 25.56° C | 86% | 1015.1 hPa | 0 mm | 1.79 m/s, 226° | - | - |
| 1787518946 | 25.56° C | 85% | 1015.2 hPa | 0 mm | 1.34 m/s, 188° | - | - |
| 1787518873 | 25.56° C | 85% | 1015.2 hPa | 0 mm | 1.34 m/s, 188° | - | - |
| 1787518649 | 25.56° C | 85% | 1015.1 hPa | 0 mm | 2.24 m/s, 219° | - | - |
| 1787518571 | 25.56° C | 85% | 1015.1 hPa | 0 mm | 2.24 m/s, 219° | - | - |
| 1787518353 | 26.11° C | 84% | 1015.1 hPa | 0 mm | 2.24 m/s, 183° | - | - |
| 1787518273 | 26.11° C | 84% | 1015.1 hPa | 0 mm | 2.24 m/s, 183° | - | - |
| 1787518035 | 26.11° C | 84% | 1015.3 hPa | 0 mm | 1.34 m/s, 194° | - | - |
| 1787517972 | 26.11° C | 84% | 1015.3 hPa | 0 mm | 1.34 m/s, 194° | - | - |
* Rain latest hour (hover to see other rain measurements)
** Current wind speed in m/s (hover to see current wind gust speed)